Weather History for Auburn, IN

Change the Weather History Date:

Tuesday, January 1, 2013

  Actual Average (KFWA) Record (KFWA)
Temperature  
Mean Temperature 24 °F 26 °F  
Max Temperature 32 °F 33 °F 60 °F (1985)
Min Temperature 17 °F 18 °F -13 °F (1968)
Degree Days  
Heating Degree Days 40 39  
Month to date heating degree days 39  
Since 1 July heating degree days 2367  
Cooling Degree Days 0 0  
Month to date cooling degree days 0  
Year to date cooling degree days 0  
Moisture  
Dew Point 18 °F    
Average Humidity 71    
Maximum Humidity 87    
Minimum Humidity 55    
Precipitation  
Precipitation 0.00 in 0.08 in 1.41 in (1948)
Month to date precipitation 0.08  
Year to date precipitation 0.08  
Snow  
Snow 0.00 in 0.30 in 5.30 in (1918)
Month to date snowfall 0.3  
Since 1 July snowfall 10.9  
Snow Depth -    
Sea Level Pressure  
Sea Level Pressure 30.09 in    
Wind  
Wind Speed 4 mph (NW)    
Max Wind Speed 9 mph    
Max Gust Speed -    
Visibility 10 miles    
Events      
T = Trace of Precipitation, MM = Missing Value Source: NWS Daily Summary

Daily Weather History Graph

Daily Weather History Graph

Search for Another Location

Airport:

Trip Planner

Search our weather history database for the weather conditions in past years. The results will help you decide how hot, cold, wet, or windy it might be!

Date:

Astronomy

Jan. 01, 2013 Rise Set
Actual Time 8:06 AM EST 5:22 PM EST
Civil Twilight 7:35 AM EST 5:53 PM EST
Nautical Twilight 7:00 AM EST 6:27 PM EST
Astronomical Twilight 6:26 AM EST 7:01 PM EST
Moon 9:55 PM EST (1/1) 10:15 AM EST (1/1)
Length of Visible Light 10h 18m
Length of Day
9h 15m
Waning Gibbous, 83% of the Moon is Illuminated
Jan 1
Waning Gibbous
Jan 4
Last Quarter
Jan 11
New
Jan 18
First Quarter
Jan 26
Full

Hourly Weather History & Observations

Time (EST) Temp. Windchill Dew Point Humidity Pressure Visibility Wind Dir Wind Speed Gust Speed Precip Events Conditions
12:15 AM 32.0 °F 26.4 °F 28.4 °F 87% 30.04 in 7.0 mi West 5.8 mph - N/A   Overcast
12:35 AM 32.0 °F 26.4 °F 26.6 °F 80% 30.04 in 7.0 mi West 5.8 mph - N/A   Overcast
12:55 AM 32.0 °F 26.4 °F 28.4 °F 87% 30.03 in 7.0 mi West 5.8 mph - N/A   Overcast
1:15 AM 30.2 °F 25.4 °F 26.6 °F 86% 30.03 in 7.0 mi WNW 4.6 mph - N/A   Overcast
1:35 AM 30.2 °F 25.4 °F 26.6 °F 86% 30.02 in 7.0 mi NW 4.6 mph - N/A   Overcast
1:55 AM 30.2 °F 23.4 °F 24.8 °F 80% 30.02 in 10.0 mi NW 6.9 mph - N/A   Overcast
2:15 AM 30.2 °F 24.3 °F 23.0 °F 75% 30.03 in 10.0 mi NW 5.8 mph - N/A   Overcast
2:35 AM 30.2 °F 24.3 °F 23.0 °F 75% 30.03 in 10.0 mi NNW 5.8 mph - N/A   Overcast
2:55 AM 30.2 °F 24.3 °F 23.0 °F 75% 30.03 in 10.0 mi North 5.8 mph - N/A   Overcast
3:15 AM 30.2 °F 25.4 °F 23.0 °F 75% 30.04 in 10.0 mi NNW 4.6 mph - N/A   Overcast
3:35 AM 30.2 °F 24.3 °F 21.2 °F 69% 30.05 in 10.0 mi NW 5.8 mph - N/A   Overcast
3:55 AM 28.4 °F 23.3 °F 21.2 °F 74% 30.05 in 10.0 mi NNW 4.6 mph - N/A   Overcast
4:15 AM 28.4 °F 23.3 °F 21.2 °F 74% 30.05 in 10.0 mi WNW 4.6 mph - N/A   Overcast
4:35 AM 28.4 °F 24.6 °F 21.2 °F 74% 30.06 in 10.0 mi NW 3.5 mph - N/A   Overcast
4:55 AM 28.4 °F 24.6 °F 21.2 °F 74% 30.05 in 10.0 mi NW 3.5 mph - N/A   Overcast
5:15 AM 28.4 °F 24.6 °F 21.2 °F 74% 30.06 in 10.0 mi NNW 3.5 mph - N/A   Overcast
5:35 AM 28.4 °F 24.6 °F 21.2 °F 74% 30.05 in 10.0 mi NNW 3.5 mph - N/A   Overcast
5:55 AM 28.4 °F - 21.2 °F 74% 30.05 in 10.0 mi Calm Calm - N/A   Overcast
6:15 AM 28.4 °F - 21.2 °F 74% 30.05 in 10.0 mi Calm Calm - N/A   Overcast
6:35 AM 26.6 °F 22.6 °F 19.4 °F 74% 30.05 in 10.0 mi NW 3.5 mph - N/A   Mostly Cloudy
6:55 AM 23.0 °F 17.0 °F 19.4 °F 86% 30.08 in 10.0 mi WNW 4.6 mph - N/A   Scattered Clouds
7:15 AM 23.0 °F 17.0 °F 17.6 °F 80% 30.09 in 10.0 mi WNW 4.6 mph - N/A   Scattered Clouds
7:35 AM 23.0 °F 18.4 °F 19.4 °F 86% 30.10 in 10.0 mi WNW 3.5 mph - N/A   Scattered Clouds
7:55 AM 23.0 °F - 19.4 °F 86% 30.10 in 10.0 mi Calm Calm - N/A   Mostly Cloudy
8:15 AM 23.0 °F - 19.4 °F 86% 30.10 in 10.0 mi Calm Calm - N/A   Overcast
8:35 AM 23.0 °F - 19.4 °F 86% 30.11 in 10.0 mi Calm Calm - N/A   Mostly Cloudy
8:55 AM 23.0 °F - 19.4 °F 86% 30.13 in 7.0 mi Calm Calm - N/A   Mostly Cloudy
9:15 AM 21.2 °F 14.9 °F 17.6 °F 86% 30.12 in 7.0 mi NNW 4.6 mph - N/A   Overcast
9:35 AM 23.0 °F 18.4 °F 19.4 °F 86% 30.12 in 10.0 mi NNW 3.5 mph - N/A   Overcast
9:55 AM 26.6 °F 21.2 °F 19.4 °F 74% 30.12 in 10.0 mi North 4.6 mph - N/A   Mostly Cloudy
10:15 AM 26.6 °F 19.1 °F 17.6 °F 69% 30.12 in 10.0 mi North 6.9 mph - N/A   Mostly Cloudy
10:35 AM 26.6 °F 19.1 °F 17.6 °F 69% 30.09 in 10.0 mi North 6.9 mph - N/A   Overcast
10:55 AM 26.6 °F 21.2 °F 17.6 °F 69% 30.11 in 10.0 mi NNE 4.6 mph - N/A   Overcast
11:15 AM 28.4 °F 23.3 °F 17.6 °F 64% 30.13 in 10.0 mi NNE 4.6 mph - N/A   Overcast
11:35 AM 28.4 °F - 17.6 °F 64% 30.13 in 10.0 mi Calm Calm - N/A   Overcast
11:55 AM 28.4 °F - 17.6 °F 64% 30.12 in 10.0 mi Calm Calm - N/A   Overcast
12:15 PM 28.4 °F - 17.6 °F 64% 30.12 in 10.0 mi Calm Calm - N/A   Overcast
12:35 PM 28.4 °F 24.6 °F 17.6 °F 64% 30.11 in 10.0 mi NE 3.5 mph - N/A   Overcast
12:55 PM 28.4 °F - 17.6 °F 64% 30.11 in 10.0 mi Calm Calm - N/A   Overcast
1:15 PM 28.4 °F - 15.8 °F 59% 30.11 in 10.0 mi Calm Calm - N/A   Overcast
1:35 PM 28.4 °F 24.6 °F 17.6 °F 64% 30.09 in 10.0 mi NW 3.5 mph - N/A   Overcast
1:55 PM 28.4 °F 23.3 °F 17.6 °F 64% 30.08 in 10.0 mi WNW 4.6 mph - N/A   Overcast
2:15 PM 28.4 °F 24.6 °F 17.6 °F 64% 30.09 in 10.0 mi West 3.5 mph - N/A   Mostly Cloudy
2:35 PM 28.4 °F 24.6 °F 17.6 °F 64% 30.09 in 10.0 mi WNW 3.5 mph - N/A   Scattered Clouds
2:55 PM 28.4 °F 22.2 °F 15.8 °F 59% 30.09 in 10.0 mi West 5.8 mph - N/A   Scattered Clouds
3:15 PM 28.4 °F 19.7 °F 15.8 °F 59% 30.09 in 10.0 mi West 9.2 mph - N/A   Clear
3:35 PM 28.4 °F 21.2 °F 15.8 °F 59% 30.09 in 10.0 mi West 6.9 mph - N/A   Clear
3:55 PM 28.4 °F 21.2 °F 14.0 °F 55% 30.09 in 10.0 mi West 6.9 mph - N/A   Clear
4:15 PM 28.4 °F 21.2 °F 15.8 °F 59% 30.09 in 10.0 mi West 6.9 mph - N/A   Scattered Clouds
4:35 PM 28.4 °F 20.4 °F 14.0 °F 55% 30.10 in 10.0 mi NW 8.1 mph - N/A   Overcast
4:55 PM 26.6 °F 20.0 °F 14.0 °F 59% 30.10 in 10.0 mi WNW 5.8 mph - N/A   Overcast
5:15 PM 26.6 °F 21.2 °F 14.0 °F 59% 30.10 in 10.0 mi WNW 4.6 mph - N/A   Mostly Cloudy
5:35 PM 26.6 °F 22.6 °F 14.0 °F 59% 30.09 in 10.0 mi NW 3.5 mph - N/A   Mostly Cloudy
5:55 PM 26.6 °F - 14.0 °F 59% 30.09 in 10.0 mi Calm Calm - N/A   Overcast
6:15 PM 26.6 °F - 14.0 °F 59% 30.09 in 10.0 mi Calm Calm - N/A   Overcast
6:35 PM 26.6 °F - 15.8 °F 64% 30.09 in 10.0 mi Calm Calm - N/A   Overcast
6:55 PM 26.6 °F - 15.8 °F 64% 30.10 in 10.0 mi Calm Calm - N/A   Overcast
7:15 PM 26.6 °F - 15.8 °F 64% 30.09 in 10.0 mi Calm Calm - N/A   Overcast
7:35 PM 26.6 °F - 15.8 °F 64% 30.09 in 10.0 mi Calm Calm - N/A   Overcast
7:55 PM 26.6 °F - 15.8 °F 64% 30.11 in 10.0 mi Calm Calm - N/A   Overcast
8:15 PM 26.6 °F - 15.8 °F 64% 30.11 in 10.0 mi Calm Calm - N/A   Overcast
8:35 PM 26.6 °F 21.2 °F 15.8 °F 64% 30.12 in 10.0 mi WSW 4.6 mph - N/A   Overcast
8:55 PM 26.6 °F 18.2 °F 17.6 °F 69% 30.12 in 10.0 mi West 8.1 mph - N/A   Overcast
9:15 PM 26.6 °F 19.1 °F 17.6 °F 69% 30.12 in 10.0 mi WNW 6.9 mph - N/A   Mostly Cloudy
9:35 PM 23.0 °F 17.0 °F 15.8 °F 74% 30.12 in 10.0 mi WNW 4.6 mph - N/A   Scattered Clouds
9:55 PM 23.0 °F 17.0 °F 14.0 °F 68% 30.12 in 10.0 mi WNW 4.6 mph - N/A   Clear
10:15 PM 19.4 °F 14.3 °F 14.0 °F 80% 30.12 in 10.0 mi WNW 3.5 mph - N/A   Clear
10:35 PM 19.4 °F 11.5 °F 12.2 °F 74% 30.12 in 10.0 mi WNW 5.8 mph - N/A   Clear
10:55 PM 19.4 °F 11.5 °F 12.2 °F 74% 30.12 in 10.0 mi West 5.8 mph - N/A   Clear
11:15 PM 17.6 °F 12.3 °F 12.2 °F 79% 30.12 in 10.0 mi West 3.5 mph - N/A   Clear
11:55 PM 17.6 °F 12.3 °F 12.2 °F 79% 30.13 in 10.0 mi West 3.5 mph - N/A   Clear